Theta_e
313 316 318 317 317 318 318 318 317 317 317 317 315 315 315 313 313 312 310 311 313 313 314 315 315 317 349 349 347 342 345 340 338 342 349 350 350 346 348 346 346 344 344 346
316 317 317 318 319 319 318 319 319 318 318 318 317 316 316 315 313 313 313 312 312 313 313 314 315 316 350 346 345 343 342 338 336 345 350 352 349 351 351 349 348 346 347 345
315 315 316 316 317 317 316 318 319 319 319 318 319 319 317 316 316 315 314 313 314 313 314 314 315 315 349 342 340 341 343 344 348 350 351 352 350 351 351 351 349 349 347 343
315 315 316 316 317 317 318 317 318 319 321 322 321 323 317 318 318 317 316 314 315 313 313 314 314 315 350 350 341 339 337 342 347 348 351 352 350 351 351 350 349 346 343 346
318 316 316 318 318 317 317 316 317 317 320 320 321 325 320 318 318 317 317 316 314 314 314 313 314 317 326 352 352 349 342 336 340 339 349 350 349 350 349 348 347 346 348 347
317 317 318 319 320 319 319 321 320 319 320 325 322 323 320 319 319 318 317 317 317 316 315 313 314 318 331 356 354 353 349 344 350 342 347 348 349 350 349 346 345 344 344 342
321 320 318 320 320 319 321 324 327 327 326 325 319 322 320 318 317 317 317 316 316 315 315 314 313 314 334 355 354 354 354 353 352 350 349 349 350 349 346 344 342 342 340 338
323 321 318 316 316 316 316 322 326 327 327 327 321 324 320 318 318 318 317 318 317 315 315 314 313 313 321 353 354 355 355 353 352 350 349 350 349 346 344 343 341 340 338 335
320 321 316 315 315 314 316 319 321 323 322 323 320 316 315 316 317 319 318 319 318 316 314 315 313 313 317 350 351 353 353 351 350 348 348 348 347 343 342 340 340 336 334 334
318 319 316 315 314 314 315 317 321 323 319 320 318 317 316 320 319 320 319 317 317 316 315 315 314 314 321 346 351 351 349 348 348 348 347 347 344 342 340 338 336 334 332 331
316 316 317 314 315 315 317 319 321 323 326 325 320 317 316 318 320 319 317 318 315 316 317 316 314 314 329 349 351 349 346 344 348 346 346 342 341 339 337 335 333 331 330 326
316 314 318 315 313 313 314 318 320 325 322 320 318 318 315 314 317 315 314 316 315 314 317 312 313 314 341 350 350 348 343 341 345 346 343 341 337 336 334 332 330 329 325 323
312 315 317 316 315 319 322 321 321 322 321 323 323 318 316 316 316 315 314 313 314 315 315 314 317 320 345 350 348 348 346 348 347 343 340 337 335 333 331 328 327 324 323 322
313 314 318 317 316 315 316 316 317 320 324 324 323 321 318 318 317 317 315 315 313 317 328 337 333 332 339 339 337 342 343 346 342 339 337 335 332 330 328 325 323 321 320 319
314 317 315 316 316 316 317 318 319 320 322 325 322 322 321 320 319 319 318 318 318 323 336 330 328 330 334 334 334 328 329 331 338 335 333 331 329 326 324 322 320 319 319 318
313 316 316 315 315 317 320 313 313 314 315 316 316 317 313 314 312 314 318 319 320 322 334 327 325 330 329 328 328 328 324 323 332 331 329 327 325 323 321 319 318 317 315 315
316 316 317 317 317 318 322 311 309 310 310 310 312 311 310 309 308 310 313 317 320 323 332 328 326 329 332 331 324 327 324 328 328 327 326 323 320 319 318 317 316 315 314 312
315 316 316 319 317 322 314 308 308 309 309 310 311 310 307 306 306 305 307 311 317 330 333 331 325 328 331 332 331 329 329 328 326 323 321 319 318 318 317 316 314 311 309 307
316 317 319 321 322 320 312 308 307 307 307 308 306 304 304 306 308 307 308 310 314 330 331 327 329 330 331 330 328 328 326 324 322 320 319 318 318 317 315 314 312 310 308 304
313 314 315 320 320 322 307 306 305 307 310 306 302 303 306 311 322 319 314 315 327 330 329 329 329 329 329 327 325 324 323 321 320 319 317 317 316 315 314 313 310 309 306 303
315 312 314 313 315 317 305 305 304 309 309 301 301 304 306 317 324 329 327 328 328 328 327 327 326 325 324 324 323 321 320 319 317 316 315 315 314 313 312 310 309 308 305 301
315 314 310 312 314 315 304 305 305 302 299 300 301 303 308 318 328 328 327 326 326 327 326 325 324 324 323 321 320 318 317 316 316 315 314 313 313 312 311 309 307 305 303 303
312 313 311 310 311 307 302 300 302 298 298 301 302 306 310 329 328 327 326 325 325 325 323 323 322 321 320 319 318 317 316 315 314 313 313 312 311 311 310 309 308 306 305 304
312 310 310 307 308 304 302 302 301 298 299 302 304 306 320 323 324 327 327 325 325 323 322 321 320 319 317 317 316 315 314 313 312 311 311 310 306 307 308 310 310 308 307 305
311 308 308 307 307 302 304 300 299 297 303 302 303 310 314 316 317 320 322 323 322 321 320 318 317 316 315 315 314 313 312 311 309 304 302 301 302 301 300 300 302 305 304 304
307 306 306 306 302 299 299 298 298 302 302 301 303 309 311 313 315 317 318 318 319 318 318 317 316 316 315 314 313 312 311 307 304 301 300 297 295 294 294 294 294 297 299 299
Wind_Speed
9 8 10 18 17 18 15 17 19 18 15 14 15 14 15 11 6 9 10 12 13 16 16 28 28 28 24 37 42 45 41 45 36 24 35 31 32 33 33 32 28 28 24 18
11 13 18 20 20 22 20 20 23 20 18 18 17 19 13 13 7 12 9 8 11 13 14 15 26 28 31 38 44 42 47 46 49 53 36 34 34 31 31 34 33 29 24 20
14 16 20 21 15 17 18 17 17 20 18 17 14 26 16 12 12 12 10 10 12 19 14 13 22 30 26 37 41 45 47 44 43 43 39 32 28 25 27 35 32 28 25 22
12 11 19 20 21 19 21 14 17 17 10 13 7 19 18 5 12 12 12 14 16 16 15 14 15 21 23 42 46 45 57 59 41 46 32 33 28 21 25 30 29 28 26 21
17 14 16 18 21 20 26 18 17 20 10 13 10 8 23 6 15 16 19 14 13 19 15 15 14 23 28 42 47 47 51 55 48 46 41 42 31 25 30 34 32 30 28 23
16 12 17 16 17 17 16 13 14 11 7 13 8 13 22 14 20 18 17 18 19 22 19 15 16 20 25 39 42 46 50 53 51 56 57 44 36 34 34 34 33 32 28 23
18 11 10 8 8 8 12 4 3 4 7 12 9 11 19 5 13 20 21 20 16 23 21 17 16 12 13 35 37 41 41 42 49 49 44 37 39 36 38 33 33 32 28 24
7 9 9 11 12 11 15 7 3 6 4 3 4 8 5 10 18 16 15 14 18 16 17 17 17 11 11 29 35 39 39 37 42 46 36 36 39 36 34 36 34 31 29 28
6 6 22 26 21 10 2 5 7 4 8 4 6 10 12 21 21 13 10 7 11 12 11 16 17 14 11 29 35 39 38 35 34 37 36 35 32 35 34 33 32 31 32 30
4 14 14 19 13 14 13 5 3 4 4 6 5 7 4 9 10 7 6 6 6 10 13 15 18 19 13 29 35 40 41 38 40 41 39 38 39 36 32 34 35 36 32 31
7 7 11 8 6 6 2 2 3 4 4 3 5 5 7 6 3 10 9 9 9 6 13 17 21 21 20 29 31 33 40 43 43 36 35 42 41 43 38 37 36 35 33 32
2 4 6 14 26 20 18 8 12 4 4 4 6 14 8 9 8 8 10 8 9 7 11 8 17 22 15 25 33 31 38 44 38 37 40 38 43 42 37 33 34 35 35 33
5 4 6 7 3 4 4 2 6 11 9 16 9 8 5 11 6 8 9 11 10 7 9 9 8 15 15 23 28 33 38 41 40 42 42 41 41 43 36 37 39 38 37 34
11 4 8 11 17 15 22 23 20 16 7 7 12 21 15 13 15 9 8 13 10 8 11 5 8 7 12 19 21 21 17 37 44 45 45 41 43 41 39 40 38 39 36 35
2 6 10 17 22 23 25 28 24 17 12 8 9 16 13 11 11 14 10 8 12 8 6 9 10 10 17 20 28 30 23 24 59 47 43 41 41 41 41 40 39 40 37 34
4 4 11 18 20 19 15 13 10 5 6 9 11 13 13 11 15 15 12 10 10 6 5 6 8 16 20 19 24 23 30 25 49 52 42 40 41 40 40 39 43 39 36 32
2 3 6 8 13 22 2 3 16 14 11 7 8 4 6 16 21 17 13 9 14 7 14 11 10 17 21 29 36 38 47 14 32 38 41 38 40 40 36 42 40 38 36 32
4 4 5 8 15 3 2 1 13 13 18 13 9 12 18 23 24 22 17 17 14 7 16 13 7 17 36 41 32 48 39 41 35 35 38 38 39 36 37 42 39 37 37 35
5 4 4 5 8 9 2 9 14 15 19 6 5 23 24 23 21 23 16 19 17 10 16 18 20 28 38 49 36 41 31 38 38 36 35 35 35 37 40 37 36 35 35 36
13 9 2 4 6 4 5 17 23 5 6 8 24 25 24 24 5 5 17 14 10 16 17 22 29 36 38 45 49 41 31 33 34 34 35 35 34 37 37 37 37 35 37 37
7 4 4 7 5 1 12 18 18 5 7 28 24 25 24 11 4 12 21 16 17 17 24 40 36 35 37 43 48 40 33 32 35 36 36 36 34 35 36 36 38 37 37 41
5 6 3 5 4 4 15 6 6 9 16 18 23 23 22 12 18 20 22 20 19 21 26 37 33 34 37 41 44 39 36 38 38 37 37 35 33 32 36 39 37 39 40 38
3 1 4 2 4 5 13 7 13 13 16 14 24 27 24 19 23 24 21 18 18 21 22 36 31 34 31 37 41 40 38 41 40 38 36 36 37 34 32 33 35 34 33 29
2 2 3 6 1 10 14 13 15 16 16 18 17 20 10 18 18 19 18 17 18 21 23 38 34 29 32 38 39 41 40 40 40 38 35 32 34 34 31 30 28 28 26 25
2 4 4 7 4 13 1 14 18 17 16 19 20 15 21 21 20 20 19 22 22 20 32 31 33 34 33 38 38 37 38 41 35 34 35 38 38 38 40 39 35 31 27 31
2 2 2 3 8 4 9 15 15 14 14 17 16 19 21 21 19 21 18 20 22 23 34 31 34 35 34 35 35 35 34 34 37 35 32 33 35 35 36 41 44 34 30 29
Wind_Direction
258 260 228 244 245 255 276 287 283 284 286 296 295 262 257 266 249 265 251 253 265 251 257 260 264 272 157 154 158 168 152 150 140 214 195 193 186 189 183 192 188 182 184 191
269 250 245 254 253 241 242 250 265 272 280 279 285 277 269 260 242 242 225 278 272 273 252 254 258 258 156 161 166 163 166 171 165 199 199 196 189 192 187 184 185 178 179 183
272 281 292 295 300 297 286 267 253 266 272 264 310 285 276 264 260 251 226 225 253 258 262 254 237 248 163 163 163 168 169 182 182 194 190 197 189 194 165 173 172 174 174 167
273 286 290 297 292 293 282 289 301 306 308 271 214 275 260 257 276 265 260 232 239 249 247 254 248 226 180 166 173 172 174 186 192 193 193 191 193 176 157 154 159 151 152 148
277 277 277 283 286 284 281 287 285 287 262 285 257 259 270 222 253 252 255 246 248 253 243 244 257 228 201 175 172 178 185 173 182 190 204 194 190 166 143 149 144 137 134 135
283 296 287 274 299 299 310 326 318 314 273 258 226 228 264 238 245 255 257 240 235 244 249 238 244 249 177 172 172 170 176 183 191 188 202 192 166 149 139 139 130 130 132 132
309 276 273 53 20 333 49 18 282 246 220 254 197 224 241 276 243 245 249 254 244 230 236 235 235 239 188 166 173 177 179 181 184 188 177 185 151 146 144 138 132 135 136 133
341 329 2 341 317 300 284 162 271 295 245 294 275 251 245 230 254 253 271 256 245 251 230 224 231 220 173 175 168 173 183 180 187 183 173 158 146 144 140 143 144 141 139 134
303 258 321 304 294 279 224 194 163 252 235 254 224 273 282 265 255 260 259 346 269 238 246 228 231 223 191 183 184 171 180 180 170 170 165 143 142 139 138 137 143 134 136 139
254 289 278 288 307 280 239 158 271 204 241 243 230 275 262 11 0 323 303 272 318 275 242 260 225 232 198 191 183 176 172 163 160 160 160 143 143 139 138 143 137 138 136 144
281 219 282 303 232 233 287 347 183 240 230 271 299 249 191 128 330 311 276 272 281 306 298 241 219 230 181 189 180 170 160 156 161 158 146 138 133 140 141 138 140 143 144 140
248 289 282 282 274 270 251 229 208 236 235 232 260 257 293 297 213 228 278 280 283 279 297 230 204 223 170 182 180 165 155 158 162 146 142 138 132 130 132 133 136 140 139 131
180 233 296 299 306 32 38 321 254 267 260 242 246 256 349 318 288 275 263 286 278 301 311 305 206 207 174 185 173 176 158 150 148 146 138 131 126 127 133 133 136 135 131 126
163 231 223 260 278 297 289 279 271 264 250 268 238 272 276 278 276 283 305 350 306 323 303 112 79 90 125 114 110 121 115 148 147 142 134 128 126 131 132 133 135 131 128 126
168 252 247 253 261 269 270 272 286 273 288 250 299 278 299 307 307 311 324 322 319 337 43 109 120 126 111 108 112 99 47 6 139 124 122 122 130 130 129 128 128 127 125 125
239 275 297 290 274 268 276 35 352 307 278 278 269 264 256 304 310 307 303 305 305 321 148 124 134 121 115 118 120 136 95 349 106 114 121 127 125 123 124 126 120 120 119 120
232 283 304 279 323 307 153 42 350 292 270 269 270 311 335 301 292 273 283 280 280 259 154 146 137 128 115 118 118 113 120 123 95 112 116 122 122 121 126 117 114 116 118 115
200 296 281 290 305 281 130 184 318 285 287 288 294 296 284 281 273 272 257 269 282 264 155 140 149 136 114 113 113 128 119 131 123 119 121 123 122 126 119 111 114 113 110 110
232 282 289 297 311 273 67 342 322 326 305 251 321 306 295 283 255 254 239 239 256 159 140 136 132 128 118 112 107 111 123 118 121 121 120 125 129 122 114 117 115 111 111 107
344 310 296 295 302 294 349 328 322 311 265 2 320 307 309 312 188 226 189 192 192 124 128 136 119 120 122 115 117 110 114 119 119 121 124 124 122 118 119 116 112 114 110 106
328 358 285 311 279 112 352 339 326 3 313 318 314 310 307 312 179 118 120 134 124 134 119 117 109 109 113 115 116 114 125 118 119 121 121 118 119 119 117 115 117 118 111 104
316 332 336 325 288 323 360 337 8 293 297 304 307 309 308 277 121 112 116 120 127 124 117 116 111 109 115 117 116 122 119 122 121 118 116 119 118 116 118 122 120 113 110 107
337 264 298 260 279 352 344 286 315 321 308 313 317 315 324 107 114 117 121 117 124 117 112 112 107 107 111 116 122 119 123 124 122 122 119 119 117 119 121 117 115 115 115 116
354 103 277 330 107 341 315 334 329 329 316 323 323 313 45 81 84 111 114 113 113 113 109 110 110 107 113 117 116 121 125 124 121 119 117 113 107 110 111 117 126 127 131 124
203 309 299 259 306 320 202 337 328 326 340 341 342 9 50 60 61 82 94 103 100 99 98 110 109 111 115 116 116 122 124 122 114 108 103 104 106 105 101 99 107 123 129 135
145 233 311 289 322 266 292 318 334 347 359 347 356 36 48 56 65 78 85 96 104 109 110 108 110 110 113 114 117 122 124 117 113 107 105 106 106 103 100 97 93 97 107 113